HULIANWANG DIGUI-95 (66003 NORAD) Tracking and Keplerian Element Data

This shows tracking and keplerian element data for the satellite.

Feedback or suggestion? Click here.




ElementValue
Catalog66003
NameHULIANWANG DIGUI-95
Epoch Orbit906
Epoch Day354.21803121
Epoch Year2025
RAAN98.8753
Inclination50.0034
Eccentricity5.22E-05
Argument of Perigee313.6853
Mean Anonmoly46.3987
Mean Motion13.54942326
Decay Rate-1.03E-06
L11 66003U 25231J 25354.21803121 -.00000103 00000+0 43572-4 0 9994
L22 66003 50.0034 98.8753 0000522 313.6853 46.3987 13.54942326 9068



Live tracking and technical data element details for HULIANWANG DIGUI-95 (NORAD 66003). HULIANWANG DIGUI-95 can be tracked NOW for your location showing map with azimuth and elevation plus other details from your city location.







IsCatalogInMostPopularTable: catalog: 66003, numindb: 3
Update: records affected: 1



GetName: 66003 HULIANWANG DIGUI-95

Hit Count: updated at: Tue, 21 Apr 2026 19:38:55 GMT